Lexington Weather

Lexington, Massachusetts, USA

49°F
12/8/2022 2:48pm 
  • Lexington Conditions: Clear
  • Temperature: 48.6°F / 9.2°CColder 1.2°F than last hour.
  • Dew Point: 35.2°FDecreased 0.9°Fsince last hour.
  • Relative Humidity: 60%Increased 1.0% since last hour.
  • Wind: Wind from NNW NNW 2 mph, 10-min avg: 3 mph, gust: 9 mph
  • Barometer: 30.07 in Steady
  • Visibility: 10 miles
  • Rain Today: 0.00 in
  •   

Regional Weather Roundup
for Boston, MA

        
000
ASUS41 KBOX 031810
RWRBOX

REGIONAL WEATHER ROUNDUP
NATIONAL WEATHER SERVICE BOSTON/NORTON MA
100 PM EST SAT DEC 03 2022

NOTE:  "FAIR" INDICATES FEW OR NO CLOUDS BELOW 12,000 FEET WITH NO 
SIGNIFICANT WEATHER AND/OR OBSTRUCTIONS TO VISIBILITY.

MAZALL-031900-
EASTERN MASSACHUSETTS
  
CITY           SKY/WX    TMP DP  RH WIND       PRES   REMARKS
BOSTON         RAIN      57  52  83 S26G37    29.96F FOG              
6HR MIN TEMP:  48; 6HR MAX TEMP:  59; 6HR PCP:  0.01;                

BEVERLY        RAIN      56  52  86 S17G30    29.94F FOG              
LAWRENCE       LGT RAIN  57  52  83 S15G28    29.94F                  
BEDFORD        LGT RAIN  57  53  86 S15G26    29.93F                  
NORWOOD        LGT RAIN  59  54  83 S17G31    29.97F                  
MARSHFIELD       N/A     59  52  77 SW25G41   29.99F                  
PLYMOUTH       LGT RAIN  58  53  84 S20G35    30.02F                  
TAUNTON          N/A    N/A N/A N/A MISG      30.02F                  
NEW BEDFORD    RAIN      58  55  90 S25G38    30.04F FOG              
$$

MAZALL-031900-
CAPE COD AND THE ISLANDS
  
CITY           SKY/WX    TMP DP  RH WIND       PRES   REMARKS
FALMOUTH       DRIZZLE   59  52  77 S29G43    30.08F                  
HYANNIS        LGT RAIN  55  50  83 S18G28    30.06F                  
CHATHAM        CLOUDY    56  51  84 S13G24    30.10F                  
PROVINCETOWN   CLOUDY    55  52  89 S20G29    30.05F                  
NANTUCKET      CLOUDY    58  53  84 S21       30.12F                  
MARTHAS VNYRD  CLOUDY    60  53  77 S22G31    30.09F                  
$$
 
MAZALL-031900-
CENTRAL AND WESTERN MASSACHUSETTS
  
CITY           SKY/WX    TMP DP  RH WIND       PRES   REMARKS
WORCESTER      LGT RAIN  55  51  86 SW20G33   29.92F FOG              
6HR MIN TEMP:  46; 6HR MAX TEMP:  55; 6HR PCP:  0.20;                

FITCHBURG      LGT RAIN  55  50  83 S13G22    29.92F                  
ORANGE         RAIN      54  51  90 S16G25    29.90F FOG              
SPRINGFIELD    LGT RAIN  54  54  99 S16       29.89F FOG              
WESTFIELD      LGT RAIN  54  52  93 S15       29.91F FOG              
NORTH ADAMS    LGT RAIN  53  47  79 W12G23    29.87F                  
PITTSFIELD     LGT RAIN  50  47  89 S13G25    29.87F                  
$$
 
RIZALL-031900-
RHODE ISLAND
  
CITY           SKY/WX    TMP DP  RH WIND       PRES   REMARKS
PROVIDENCE     RAIN      56  53  90 S24G41    30.02F FOG              
6HR MIN TEMP:  47; 6HR MAX TEMP:  59; 6HR PCP:  0.10;                

NEWPORT        LGT RAIN  56  52  86 S22G32    30.04F FOG              
BLOCK ISLAND   LGT RAIN  56  52  86 S26G39    30.06F                  
SMITHFIELD     LGT RAIN  55  54  96 SW17G32   29.98F FOG              
WESTERLY       LGT RAIN  56  53  90 S21G31    30.03F FOG              
$$
 
CTZALL-031900-
CONNECTICUT
  
CITY           SKY/WX    TMP DP  RH WIND       PRES   REMARKS
BRADLEY INTL   RAIN      56  53  90 S15       29.93F FOG              
6HR MIN TEMP:  47; 6HR MAX TEMP:  56; 6HR PCP:  0.25;                

HARTFORD       RAIN      57  53  86 S20G35    29.94F FOG              
BRIDGEPORT     RAIN      56  53  90 SW28G38   29.97F FOG              
DANBURY        HVY RAIN  57  52  83 SW13G22   29.96F                  
GROTON         RAIN      58  53  84 S31G40    29.99F                  
NEW HAVEN      LGT RAIN  58  55  90 S21G30    29.97F FOG              
CHESTER        RAIN      55  55 100 S16G36    29.97F                  
MERIDEN        LGT RAIN  56  52  86 S16G30    29.96F FOG              
WILLIMANTIC    RAIN      56  53  90 S23G32    29.96F FOG              
OXFORD         LGT RAIN  53  53 100 SW9G23    29.96F FOG              
$$

MEZ002-015-021-024-NHZ003-005-008-011-012-014-VTZ005-008-031900-
NORTHERN NEW ENGLAND
  
CITY           SKY/WX    TMP DP  RH WIND       PRES   REMARKS
PORTLAND ME    LGT RAIN  53  50  89 S15G29    29.90F                  
6HR MIN TEMP:  47; 6HR MAX TEMP:  53; 6HR PCP:  0.08;                

BANGOR ME      LGT RAIN  52  50  93 S23G40    29.91F FOG              
CONCORD NH     LGT RAIN  53  51  93 S13       29.88F                  
MANCHESTER NH  LGT RAIN  56  52  86 S16G25    29.88F                  
NASHUA NH      LGT RAIN  55  50  83 S8        29.91F                  
PORTSMOUTH NH  LGT RAIN  56  52  87 S18G28    29.90F                  
JAFFREY NH     LGT RAIN  54  50  86 S14G28    29.88F FOG              
KEENE NH       RAIN      53  52  96 SW12G20     N/A                   
BURLINGTON VT  CLOUDY    47  44  90 S13G25    29.75F                  
MT. WASHINGTON FRZ RAIN  32  32 100 SW45G66     N/A  VSB 0   WCI  15  
$$

NYZ052-076-031900-
EASTERN NEW YORK
  
CITY           SKY/WX    TMP DP  RH WIND       PRES   REMARKS
ALBANY         PTSUNNY   51  47  86 S15G22    29.85F                  
6HR MIN TEMP:  45; 6HR MAX TEMP:  51; 6HR PCP:  0.07;                

NEW YORK CITY  RAIN      57  52  83 SW16G25   29.98F FOG              
6HR MIN TEMP:  51; 6HR MAX TEMP:  57; 6HR PCP:  0.30;                

$$
 
ANZALL-031900-
MARINE OBSERVATIONS
  
STATION/POSITION TIME  TEMP    WIND        PRES    VSBY  WAVE
                       AIR SEA DIR/SP/G                  HT/PER
                 (UTC) (F)     (DEG/KT/KT) (MB)    (MI)  (FT/S)
BOSTON BUOY      1750      51  200/ 25/ 35 1016.0F         5/ 5
BUZZARDS BAY     1700   57     200/ 30/ 33 1019.8F
NANTUCKET SOUND  1750   56 49  180/ 21/ 25 1018.8F         3/ 4
MASS BAY-STELLWA 1604   54 50  180/ 21/ 25 1017.2F  1 7/8  5/ 5
ISLE OF SHOALS   1700   55     190/ 34/ 37 1014.0F
S OF BLOCK IS    1756      56                N/A           9/ 7
$$

......................KEY.........................
  SKY/WX - SKY CONDITION/PRESENT WEATHER
  TMP    - TEMPERATURE IN FAHRENHEIT
  DWPT   - DEWPOINT IN FAHRENHEIT
  RH     - RELATIVE HUMIDITY IN PERCENT
  WIND   - DIRECTION AND SPEED IN MPH
  PRES   - MEAN SEA LEVEL PRESSURE IN INCHES OF HG
  WCI    - WIND CHILL INDEX
  VSB    - VISIBILITY IN MILES
  HX     - HEAT INDEX
  TC     - TEMPERATURE IN CELSIUS
  VRB    - VARIABLE WIND DIRECTION
  N/A    - NOT AVAILABLE
  
      

Other recent Regional Weather Roundups

Thu Dec 8, 2:10pm

Thu Dec 8, 1:10pm

Thu Dec 8, 12:10pm

Thu Dec 8, 11:10am

Thu Dec 8, 10:10am

Thu Dec 8, 9:10am

Thu Dec 8, 8:10am

Thu Dec 8, 7:10am

Thu Dec 8, 6:10am

Thu Dec 8, 5:10am

Thu Dec 8, 4:10am

Thu Dec 8, 3:10am

Thu Dec 8, 2:10am

Thu Dec 8, 1:10am

Thu Dec 8, 12:10am

Wed Dec 7, 11:10pm

Wed Dec 7, 10:10pm

Wed Dec 7, 9:10pm

Wed Dec 7, 8:10pm

Wed Dec 7, 7:10pm

Wed Dec 7, 6:10pm

Wed Dec 7, 5:10pm

Wed Dec 7, 4:10pm

Wed Dec 7, 3:10pm

Wed Dec 7, 2:10pm

Wed Dec 7, 1:10pm

Wed Dec 7, 12:10pm

Wed Dec 7, 11:10am

Wed Dec 7, 10:10am

Wed Dec 7, 9:10am

Wed Dec 7, 8:10am

Wed Dec 7, 7:10am

Wed Dec 7, 6:10am

Wed Dec 7, 5:10am

Wed Dec 7, 4:10am

Wed Dec 7, 3:10am

Wed Dec 7, 2:10am

Wed Dec 7, 1:10am

Wed Dec 7, 12:10am

Tue Dec 6, 11:10pm

Tue Dec 6, 10:10pm

Tue Dec 6, 9:10pm

Tue Dec 6, 8:10pm

Tue Dec 6, 7:10pm

Tue Dec 6, 6:10pm

Tue Dec 6, 5:10pm

Tue Dec 6, 4:10pm

Tue Dec 6, 3:10pm

Tue Dec 6, 2:10pm

Tue Dec 6, 1:10pm

Tue Dec 6, 12:10pm

Tue Dec 6, 11:10am

Tue Dec 6, 10:10am

Tue Dec 6, 9:10am

Tue Dec 6, 8:10am

Tue Dec 6, 7:10am

Tue Dec 6, 6:10am

Tue Dec 6, 5:10am

Tue Dec 6, 4:10am

Tue Dec 6, 3:10am

Tue Dec 6, 2:10am

Tue Dec 6, 1:10am

Tue Dec 6, 12:10am

Mon Dec 5, 11:10pm

Mon Dec 5, 10:10pm

Mon Dec 5, 9:10pm

Mon Dec 5, 8:10pm

Mon Dec 5, 7:10pm

Mon Dec 5, 6:10pm

Mon Dec 5, 5:10pm

Mon Dec 5, 4:10pm

Mon Dec 5, 3:10pm

Mon Dec 5, 2:10pm

Mon Dec 5, 1:10pm

Mon Dec 5, 12:10pm

Mon Dec 5, 11:10am

Mon Dec 5, 10:10am

Mon Dec 5, 9:10am

Mon Dec 5, 8:10am

Mon Dec 5, 7:10am

Mon Dec 5, 6:10am

Mon Dec 5, 5:10am

Mon Dec 5, 4:10am

Mon Dec 5, 3:10am

Mon Dec 5, 2:10am

Mon Dec 5, 1:10am

Mon Dec 5, 12:10am

Sun Dec 4, 11:10pm

Sun Dec 4, 10:10pm

Sun Dec 4, 9:10pm

Sun Dec 4, 8:10pm

Sun Dec 4, 7:10pm

Sun Dec 4, 6:10pm

Sun Dec 4, 5:10pm

Sun Dec 4, 4:10pm

Sun Dec 4, 3:10pm

Sun Dec 4, 2:10pm

Sun Dec 4, 1:10pm

Sun Dec 4, 12:10pm

Sun Dec 4, 11:10am

Sun Dec 4, 10:10am

Sun Dec 4, 9:10am

Sun Dec 4, 8:10am

Sun Dec 4, 7:10am

Sun Dec 4, 6:10am

Sun Dec 4, 5:10am

Sun Dec 4, 4:10am

Sun Dec 4, 3:10am

Sun Dec 4, 2:10am

Sun Dec 4, 1:10am

Sun Dec 4, 12:10am

Sat Dec 3, 11:10pm

Sat Dec 3, 10:10pm

Sat Dec 3, 9:10pm

Sat Dec 3, 8:10pm

Sat Dec 3, 7:10pm

Sat Dec 3, 6:10pm

Sat Dec 3, 5:10pm

Sat Dec 3, 4:10pm

Sat Dec 3, 3:10pm

Sat Dec 3, 2:10pm

Sat Dec 3, 12:10pm

Sat Dec 3, 11:10am

Sat Dec 3, 10:10am

Sat Dec 3, 9:10am

Sat Dec 3, 8:10am

Sat Dec 3, 7:10am

Sat Dec 3, 6:10am

Sat Dec 3, 5:10am

Sat Dec 3, 4:10am

Sat Dec 3, 3:10am

Sat Dec 3, 2:10am

Sat Dec 3, 1:10am

Sat Dec 3, 12:10am

Fri Dec 2, 11:10pm

Fri Dec 2, 10:10pm

Fri Dec 2, 9:10pm

Fri Dec 2, 8:10pm

Fri Dec 2, 7:10pm

Fri Dec 2, 6:10pm

Fri Dec 2, 5:10pm

Fri Dec 2, 4:10pm

Fri Dec 2, 3:10pm

Fri Dec 2, 2:10pm

Fri Dec 2, 1:10pm

Fri Dec 2, 12:10pm

Fri Dec 2, 11:10am

Fri Dec 2, 10:10am

Fri Dec 2, 9:10am

Fri Dec 2, 8:10am

Fri Dec 2, 7:10am

Fri Dec 2, 6:10am

Fri Dec 2, 5:10am

Fri Dec 2, 4:10am

Fri Dec 2, 3:10am

Fri Dec 2, 2:10am

Fri Dec 2, 1:10am

Fri Dec 2, 12:10am

Thu Dec 1, 11:10pm

Thu Dec 1, 10:10pm

Thu Dec 1, 9:10pm

Thu Dec 1, 8:10pm

Thu Dec 1, 7:10pm

Thu Dec 1, 6:10pm

Thu Dec 1, 5:10pm

Thu Dec 1, 4:10pm

Thu Dec 1, 3:10pm

Meta data:

ID: 5c9d7cb8-5a78-430b-9245-de517d9862e5
Link: https://api.weather.gov/products/5c9d7cb8-5a78-430b-9245-de517d9862e5